Location: Antioch Baptist Church
(32.6696°N, 85.7327°W)
Time: 21:06:13
(UTC+00:00)

IRS-1C - Pass Details

Date: 14 July 2020
Orbit: 815 x 817 km, 98.8° (Epoch: 13 August)

Event Time Altitude Azimuth Distance (km) Brightness Sun altitude
Rises 07:59:40 0° 16° (NNE) 3,346 8.4 -27.4°
Reaches altitude 10° 08:02:03 10° 19° (NNE) 2,410 7.5 -27.1°
Maximum altitude 08:07:21 66° 102° (ESE) 886 4.3 -26.5°
Enters shadow 08:08:02 60° 143° (SE) 932 4.2 -26.4°
